SCP
0 0 0 0 0 0 0 0 0 0 0 0 0 0 0 0 1 1 1 1 1 1 1 1 1 1 1 1 1 1 1 1 1 1 1 1 1 1 1 1 1 1 1
0 0 0 0 0 0 0 0 0 0 0 0 0 0 0 1 1 1 1 1 1 1 1 1 1 1 1 1 1 1 1 1 1 1 1 1 1 1 1 1 1 1 1
0 0 0 0 0 0 0 0 0 0 0 0 0 0 1 1 1 2 1 1 1 1 1 1 1 1 1 1 1 1 1 1 1 1 1 1 1 1 1 1 1 1 1
0 0 0 0 0 0 0 0 0 0 0 0 0 0 1 2 2 2 1 1 1 1 1 1 1 1 1 1 1 1 1 1 1 1 1 1 1 1 1 1 1 1 1
0 0 0 0 0 0 0 0 0 0 0 0 0 0 1 1 2 2 1 1 1 1 1 1 1 1 1 1 1 1 1 1 1 1 1 1 1 1 1 1 1 1 1
0 0 0 0 0 0 0 0 0 0 0 0 0 0 0 1 1 1 1 1 1 1 0 1 1 1 1 1 1 1 1 1 1 0 1 1 1 1 1 1 1 1 1
0 0 0 0 0 0 0 0 0 0 0 0 0 0 0 0 1 1 1 1 1 0 0 0 1 1 1 1 1 1 1 1 0 0 0 0 1 1 1 1 1 1 1
1 1 1 1 0 0 0 0 0 0 0 0 0 0 0 0 0 1 1 1 1 0 0 0 0 0 0 1 1 1 1 1 1 0 0 0 0 0 0 0 0 1 1
1 1 1 1 1 0 0 0 0 0 0 0 0 0 0 0 0 0 0 0 0 0 0 0 0 0 0 0 1 1 1 1 1 1 0 0 0 0 0 0 0 0 0
1 1 0 0 1 0 0 0 0 0 0 0 0 0 0 0 0 0 0 0 0 0 0 0 0 0 0 0 1 1 1 1 1 1 1 0 0 0 0 0 0 0 0
1 0 0 0 0 0 0 0 0 0 0 0 0 0 0 0 0 0 0 0 0 0 0 0 0 0 0 0 1 1 1 1 1 1 1 0 0 0 0 0 0 0 0
0 0 0 0 0 0 0 0 0 0 0 0 0 0 0 0 0 0 0 0 0 0 0 0 0 0 0 0 1 1 1 1 1 0 0 0 0 0 0 0 0 0 0
0 0 0 0 0 0 0 0 0 0 0 0 0 0 0 0 0 0 0 0 0 0 0 0 0 0 0 0 1 1 1 1 0 0 0 0 0 0 0 0 0 0 0
1 0 0 0 0 0 0 0 0 0 0 0 0 0 0 0 0 0 0 1 1 0 0 0 0 0 0 0 1 1 1 1 0 0 0 0 0 0 0 0 0 0 0
1 1 0 0 0 0 0 0 0 0 0 0 0 0 0 0 0 0 0 1 1 0 0 0 0 0 0 0 0 1 1 0 0 0 0 0 0 0 0 0 0 0 0
1 1 0 0 0 0 0 0 0 0 0 0 0 0 0 0 0 0 0 0 0 0 0 0 0 0 0 0 0 0 0 0 0 0 0 0 0 0 0 0 0 0 0
0 0 0 0 0 1 0 0 0 0 0 0 0 0 0 0 0 0 0 0 0 0 0 0 0 0 0 0 0 0 0 0 0 0 0 0 0 0 0 0 0 0 0
0 0 0 0 1 1 1 1 1 0 0 0 0 0 0 0 0 0 0 0 0 0 0 0 0 0 0 0 0 0 0 0 0 0 0 0 0 0 0 0 0 0 0
0 0 0 0 0 1 1 1 1 0 0 0 0 0 0 0 0 0 0 0 0 0 0 0 0 0 0 0 0 0 0 0 0 0 0 0 0 0 0 0 0 0 0
1 0 0 0 0 0 1 1 1 1 1 1 1 1 0 0 0 0 0 0 0 0 0 0 0 0 0 0 0 0 0 0 0 0 0 0 0 0 0 0 0 0 0
1 1 0 0 0 0 0 1 1 1 1 1 1 1 0 0 0 0 0 0 0 0 0 0 0 0 0 0 0 0 0 0 0 0 0 0 0 0 0 0 0 0 0
1 1 1 1 1 0 0 0 1 1 1 1 1 1 1 0 0 0 0 0 0 0 0 0 0 0 0 0 0 0 0 0 0 0 0 0 0 0 0 0 0 0 0
1 1 1 1 1 1 0 0 0 1 1 1 1 1 1 0 0 0 0 0 0 0 0 0 0 0 0 0 0 0 0 0 0 0 0 0 0 0 0 0 0 0 0
1 1 1 1 1 1 1 0 0 1 1 1 1 1 1 1 0 0 0 0 0 0 0 0 0 0 0 0 0 0 0 0 0 0 0 0 0 0 0 0 0 0 0
1 1 1 1 1 1 1 1 0 1 1 1 1 2 1 1 0 0 0 0 0 0 0 0 0 0 0 0 0 0 0 0 0 0 0 0 0 0 0 0 0 0 0
1 1 1 1 1 1 1 0 0 1 1 1 1 2 1 1 0 0 0 0 0 0 0 0 0 0 0 0 0 0 0 0 0 0 0 0 0 0 0 0 0 0 0
Wind_Speed
3 3 3 2 3 2 2 2 3 4 4 5 5 6 5 5 5 5 4 9 9 9 10 9 10 10 9 9 10 10 10 9 9 8 8 8 8 7 7 6 5 5 5
3 3 3 3 3 2 2 3 3 3 3 4 5 5 5 4 5 5 4 6 10 10 10 9 10 9 9 9 9 9 9 9 9 9 9 8 8 7 6 6 6 6 5
3 3 3 3 2 3 3 3 4 3 3 3 4 4 4 4 4 5 5 3 4 8 10 10 10 10 10 10 9 9 8 8 9 9 9 8 8 7 6 6 6 6 5
4 4 3 2 3 2 2 2 3 3 3 3 3 3 3 3 4 4 4 4 3 4 7 10 10 10 10 10 9 9 9 8 8 8 8 8 7 6 6 6 6 6 6
4 4 2 2 3 3 2 3 3 3 3 2 2 2 3 3 3 4 4 4 4 4 3 7 9 10 10 10 10 9 9 9 9 9 9 8 8 7 6 6 6 6 6
3 3 2 3 3 2 2 3 3 3 2 1 2 3 2 2 2 3 3 3 3 4 3 4 4 5 9 10 9 9 8 8 8 8 8 8 8 7 6 6 5 5 6
3 3 2 3 2 2 2 2 2 2 1 1 2 1 1 1 2 2 2 2 3 3 2 3 3 3 3 8 8 9 8 8 8 8 7 7 7 6 6 6 6 6 6
2 2 2 2 2 2 2 2 2 1 1 2 1 1 1 1 1 2 2 2 2 2 2 3 4 4 3 2 5 8 7 7 7 7 7 6 6 6 6 6 6 6 6
2 2 2 2 2 2 1 0 1 1 1 1 1 1 1 0 1 1 1 2 2 2 1 1 3 4 4 3 3 4 6 5 5 5 5 5 5 5 5 5 5 5 5
2 2 2 1 1 2 1 0 1 0 1 0 1 1 1 2 1 0 1 1 1 2 2 2 2 2 4 3 4 5 6 5 4 4 4 4 4 4 5 5 4 4 4
2 2 1 1 1 1 1 1 1 0 0 0 0 0 1 1 1 2 0 0 0 0 1 2 2 2 3 3 3 4 5 5 4 4 4 4 4 4 4 4 4 4 4
1 1 1 1 1 1 1 1 0 0 0 0 0 0 0 0 0 1 1 1 1 1 1 1 1 2 2 3 4 6 5 4 4 4 3 3 3 3 3 3 3 3 3
1 1 1 1 1 1 1 1 0 0 0 0 1 0 0 0 0 0 0 1 0 0 1 1 1 2 2 3 3 5 4 4 3 3 3 3 3 3 2 2 2 2 2
2 2 2 1 2 1 1 1 0 1 1 1 0 0 0 1 0 1 1 1 0 0 0 1 1 2 2 3 4 5 3 4 3 2 2 2 2 3 3 3 2 2 2
2 2 2 2 1 1 1 1 0 1 0 1 1 1 0 1 0 0 1 1 2 1 1 1 1 1 2 2 4 3 3 5 4 2 2 1 1 2 2 1 2 2 2
2 2 1 2 2 2 1 1 0 0 0 1 1 1 1 1 1 0 0 0 1 2 1 1 1 1 2 2 3 2 3 7 5 4 2 1 0 0 0 1 1 2 2
2 2 2 2 2 2 1 1 1 1 1 1 1 1 2 1 1 1 1 0 1 1 1 1 1 1 2 2 2 2 2 3 3 5 4 3 2 1 1 1 1 1 2
2 2 2 2 2 2 1 1 1 1 1 1 2 2 2 1 1 1 1 1 1 2 2 2 1 1 2 3 3 2 2 3 3 5 5 4 3 2 2 1 1 1 1
1 1 1 1 1 2 2 1 2 1 2 2 2 2 2 2 1 1 1 1 1 1 2 2 1 1 1 2 2 1 2 1 2 3 5 4 4 3 3 2 2 1 1
1 1 1 1 1 1 2 1 1 1 2 1 1 1 1 1 2 2 1 2 1 1 2 2 1 1 1 2 2 2 1 1 1 1 2 3 3 3 3 3 2 2 1
1 1 1 1 1 1 1 1 1 2 1 1 1 1 1 2 2 2 2 2 1 1 1 1 1 1 1 1 2 2 2 2 1 1 1 1 2 1 2 3 4 3 3
1 1 1 1 1 1 1 0 1 1 1 2 2 2 2 2 2 3 3 3 3 3 3 2 2 2 3 2 2 2 2 1 1 1 2 1 2 1 2 2 3 4 4
0 0 0 0 1 1 1 1 1 1 1 1 2 2 2 1 1 1 2 2 2 3 4 3 3 3 3 3 3 2 2 2 2 2 1 1 1 1 2 2 4 4 4
0 1 0 0 0 1 1 2 1 1 1 1 2 1 1 2 1 1 2 2 1 2 3 3 3 3 2 2 3 3 3 2 1 1 2 1 1 1 1 1 4 4 4
1 1 1 1 1 2 2 2 1 1 1 2 2 2 1 1 1 1 1 2 2 2 2 2 2 1 1 1 2 2 1 1 1 1 1 2 1 1 1 1 2 4 3
1 1 1 1 1 2 2 2 2 1 1 1 2 2 2 1 1 1 1 1 2 2 1 1 1 1 2 2 2 3 3 2 1 1 1 1 1 0 1 1 1 1 1
Wind_Direction
67 74 75 56 55 47 48 47 51 43 39 35 48 60 71 84 90 88 78 79 86 86 83 82 85 88 87 84 84 79 77 77 78 80 81 86 87 87 84 85 83 76 73
61 64 68 59 49 42 42 49 57 51 53 47 47 53 61 72 86 95 95 80 79 82 81 83 84 83 82 84 84 83 80 79 77 78 78 79 81 81 84 87 91 86 76
73 71 62 62 52 41 45 48 44 45 59 58 55 54 56 58 79 90 96 95 86 81 82 82 82 79 77 78 80 80 81 80 78 77 74 73 74 76 77 80 83 83 78
73 75 67 56 55 47 46 58 48 41 45 47 47 49 55 54 64 81 90 92 88 85 83 85 81 78 74 72 73 75 77 77 75 72 70 68 68 73 75 77 78 80 81
79 81 73 64 60 48 37 51 56 51 48 47 58 65 59 56 54 69 76 82 90 92 92 95 87 80 76 71 66 68 71 72 70 68 64 59 60 66 73 77 77 78 81
74 83 86 75 69 59 38 48 59 53 46 32 60 79 85 87 66 54 67 76 87 98 103 102 101 86 80 73 66 64 69 71 72 70 66 59 57 63 68 70 77 82 83
73 81 81 82 77 72 67 58 62 55 33 45 63 50 65 89 98 84 71 75 83 91 105 111 107 96 88 76 66 65 64 66 67 68 66 62 59 65 68 68 72 77 82
77 78 73 86 91 80 62 54 51 46 10 19 70 83 54 32 18 106 102 95 92 79 77 90 102 103 99 91 73 68 62 65 67 65 62 61 58 62 68 70 70 71 75
85 77 77 86 103 103 103 95 68 64 4 340 30 85 105 113 335 21 120 109 104 93 80 76 93 104 108 103 95 69 67 60 70 72 67 63 59 60 66 74 71 66 68
107 102 90 91 96 95 109 139 92 50 99 337 339 9 82 132 130 353 338 87 120 118 118 86 79 89 101 103 100 85 69 55 56 67 73 71 67 62 65 72 72 68 71
150 129 114 98 88 97 115 89 64 29 107 142 210 342 6 15 148 142 222 288 357 143 128 123 119 105 108 112 114 98 82 65 57 61 63 64 62 56 56 59 61 61 66
138 123 112 107 101 95 105 108 101 93 11 9 283 137 131 90 264 122 177 209 220 220 138 124 134 129 127 119 120 114 101 84 72 64 58 60 58 50 47 44 49 53 51
150 159 122 151 133 145 134 122 141 210 215 248 263 232 186 246 186 97 130 217 180 233 136 153 160 142 138 123 125 132 124 110 95 77 62 56 51 37 27 28 31 39 39
178 168 167 174 162 161 130 123 169 240 214 214 273 329 307 299 140 155 167 145 82 312 185 217 171 156 147 136 149 154 147 136 123 103 80 65 55 37 26 22 11 6 12
162 158 167 151 142 140 143 145 176 234 208 221 208 231 248 265 262 168 173 172 162 191 251 219 182 180 145 131 158 168 153 153 146 138 119 88 57 37 33 20 6 360 351
148 158 163 149 149 155 146 137 166 221 188 223 200 217 234 245 235 177 206 262 174 172 209 218 198 182 163 155 169 177 163 162 167 168 165 162 152 32 352 335 332 338 336
161 167 170 167 169 156 158 160 190 191 217 252 235 217 229 223 196 204 192 210 239 166 183 236 182 159 156 166 172 176 162 167 177 178 177 184 196 209 235 258 312 326 315
161 163 173 167 166 156 160 165 204 210 225 248 242 222 227 214 212 208 185 204 216 207 176 190 192 182 187 180 177 187 174 169 173 181 184 191 201 209 213 221 243 289 300
161 155 164 166 175 172 169 183 191 213 216 228 229 227 232 208 209 205 197 214 219 217 174 166 193 201 204 182 167 192 186 182 184 178 188 199 201 205 206 205 214 231 265
176 173 172 181 197 182 165 191 197 219 233 229 226 239 242 215 206 199 206 212 209 205 180 167 180 207 214 206 161 180 197 220 218 190 193 188 200 207 207 202 207 214 212
220 216 172 178 225 210 184 181 211 216 227 244 246 242 234 212 207 202 205 199 186 200 192 169 181 194 224 210 199 194 186 207 228 198 185 192 179 201 215 220 218 215 210
197 205 200 193 220 279 353 3 295 235 238 231 240 240 237 222 196 204 211 206 200 201 197 186 200 201 218 215 204 194 181 182 246 232 164 220 169 200 212 198 186 188 202
194 160 245 198 206 220 202 208 279 273 267 262 248 248 261 226 183 180 201 216 221 223 212 199 203 218 213 208 184 195 193 181 211 221 151 231 212 214 215 187 170 185 193
241 215 232 253 250 254 227 230 252 263 267 284 277 256 247 240 188 193 191 179 211 223 224 217 209 228 230 200 183 189 194 196 210 232 140 199 242 232 217 190 183 181 189
269 250 230 236 248 250 228 226 213 225 224 262 280 287 261 255 200 215 184 202 222 231 226 202 195 208 220 205 178 135 146 161 226 244 190 164 226 242 232 206 186 182 193
244 253 256 247 246 244 233 216 203 210 219 259 270 273 265 256 273 232 196 202 239 243 215 219 240 255 236 219 208 187 180 177 183 226 226 160 203 142 301 272 168 164 190